EW5523 Weather Reports


time (UTC)temp
C
wind
direction
speed
KPH
gust
KPH
rain 1hr
cm
rain 24hr
cm
rain mn
cm
humidity
%
barometer
mb
20260905031526 13 80 0.0 0.0 0.00 0.00 0.00 92 1010.2
20260905030032 13 79 0.0 0.0 0.00 0.00 0.00 93 1010.4
20260905024524 13 76 0.0 0.0 0.00 0.00 0.00 93 1010.3
20260905023023 13 50 0.0 0.0 0.00 0.00 0.00 94 1010.5
20260905021527 13 45 0.0 0.0 0.00 0.00 0.00 94 1010.6
20260905020019 13 311 0.0 0.0 0.00 0.00 0.00 94 1010.4
20260905014517 13 305 0.0 0.0 0.00 0.00 0.00 93 1010.5
20260905013016 13 287 0.0 0.0 0.00 0.00 0.00 94 1010.6
20260905011520 13 286 0.0 0.0 0.00 0.00 0.00 93 1010.7
20260905010018 13 286 0.0 0.0 0.00 0.00 0.00 93 1010.8
20260905004513 13 283 0.0 1.6 0.00 0.00 0.00 94 1011.0
20260905003015 13 83 0.0 0.0 0.00 0.00 0.00 93 1010.9
20260905001512 13 79 0.0 0.0 0.00 0.00 0.00 93 1011.0
20260905000008 13 116 0.0 0.0 0.00 0.00 0.00 93 1011.4
20260904234508 13 226 0.0 0.0 0.00 0.00 0.00 94 1011.4
20260904233006 13 226 0.0 0.0 0.00 0.00 0.00 93 1011.5
20260904231509 13 226 0.0 0.0 0.00 0.00 0.00 93 1011.6
20260904230014 13 226 0.0 0.0 0.00 0.00 0.00 93 1011.7
20260904224504 13 226 0.0 0.0 0.00 0.00 0.00 94 1011.7
20260904223002 13 226 0.0 0.0 0.00 0.00 0.00 94 1011.8
20260904221502 13 226 0.0 0.0 0.00 0.00 0.00 94 1011.9
20260904220104 13 226 0.0 0.0 0.00 0.00 0.00 94 1012.0
20260904214600 13 226 0.0 0.0 0.00 0.00 0.00 94 1012.3
20260904213056 13 226 0.0 0.0 0.00 0.00 0.00 93 1012.5
20260904211554 13 226 0.0 0.0 0.00 0.00 0.00 93 1012.5
20260904210056 13 226 0.0 0.0 0.00 0.00 0.00 92 1012.7
20260904204551 13 226 0.0 0.0 0.00 0.00 0.00 92 1012.7
20260904203056 14 226 0.0 0.0 0.00 0.00 0.00 92 1012.8
20260904201550 14 226 0.0 0.0 0.00 0.00 0.00 92 1012.8
20260904200105 14 226 0.0 0.0 0.00 0.00 0.00 92 1012.9
20260904194551 14 226 0.0 0.0 0.00 0.00 0.00 92 1012.9
20260904193045 14 226 0.0 0.0 0.00 0.00 0.00 92 1012.9
20260904191545 14 226 0.0 0.0 0.00 0.00 0.00 92 1012.9
20260904190050 14 226 0.0 0.0 0.00 0.00 0.00 92 1013.0
20260904184544 14 226 0.0 0.0 0.00 0.00 0.00 92 1013.1
20260904183043 14 226 0.0 0.0 0.00 0.00 0.00 92 1013.1
20260904181543 14 226 0.0 0.0 0.00 0.00 0.00 90 1013.3
20260904180048 15 226 0.0 0.0 0.00 0.00 0.00 89 1013.2
20260904174543 15 226 0.0 0.0 0.00 0.00 0.00 89 1013.2
20260904173055 15 226 0.0 0.0 0.00 0.00 0.00 88 1013.3
20260904171546 15 226 0.0 0.0 0.00 0.00 0.00 86 1013.4
20260904170041 16 226 0.0 0.0 0.00 0.00 0.00 84 1013.4
20260904164540 16 226 0.0 0.0 0.00 0.00 0.00 83 1013.4
20260904163040 16 225 0.0 0.0 0.00 0.00 0.00 83 1013.4
20260904161540 16 208 0.0 0.0 0.00 0.00 0.00 84 1013.5
20260904160046 16 208 0.0 0.0 0.00 0.00 0.00 83 1013.4
20260904154540 16 200 0.0 0.0 0.00 0.00 0.00 84 1013.3
20260904153039 17 194 0.0 0.0 0.00 0.00 0.00 83 1013.2
20260904151539 17 194 0.0 0.0 0.00 0.00 0.00 83 1013.0
20260904150036 17 194 0.0 0.0 0.00 0.00 0.00 83 1013.0
20260904144536 17 235 0.0 0.0 0.00 0.00 0.00 83 1013.0
20260904143037 17 278 0.0 0.0 0.00 0.00 0.00 82 1012.8
20260904141542 18 190 0.0 8.0 0.00 0.00 0.00 79 1013.0
20260904140033 18 208 0.0 0.0 0.00 0.00 0.00 78 1013.0
20260904134550 18 168 0.0 4.8 0.00 0.00 0.00 75 1013.0
20260904133035 19 195 0.0 11.3 0.00 0.00 0.00 71 1013.0
20260904131533 21 163 0.0 8.0 0.00 0.00 0.00 65 1013.0
20260904130035 22 239 0.0 0.0 0.00 0.00 0.00 62 1012.6
20260904124532 22 195 0.0 0.0 0.00 0.00 0.00 64 1012.6
20260904123030 22 202 0.0 0.0 0.00 0.00 0.00 63 1012.9
20260904121530 22 214 0.0 4.8 0.00 0.00 0.00 64 1012.6
20260904120029 21 264 0.0 0.0 0.00 0.00 0.00 67 1012.7
20260904114530 21 264 0.0 0.0 0.00 0.00 0.00 66 1012.8
20260904113029 21 250 0.0 0.0 0.00 0.00 0.00 64 1013.0
20260904111528 22 259 0.0 6.4 0.00 0.00 0.00 62 1012.9
20260904110028 22 237 0.0 4.8 0.00 0.00 0.00 63 1013.0
20260904104527 22 203 0.0 0.0 0.00 0.00 0.00 62 1012.9
20260904103027 22 224 0.0 0.0 0.00 0.00 0.00 62 1013.1
20260904101527 22 209 0.0 9.7 0.00 0.00 0.00 62 1013.0
20260904100026 22 292 0.0 8.0 0.00 0.00 0.00 61 1013.0
20260904094539 22 205 0.0 12.9 0.00 0.00 0.00 61 1013.2
20260904093023 22 150 0.0 4.8 0.00 0.00 0.00 63 1013.1
20260904091523 22 216 0.0 8.0 0.00 0.00 0.00 62 1013.2
20260904090039 22 147 1.6 9.7 0.00 0.00 0.00 64 1013.2
20260904084522 22 193 0.0 8.0 0.00 0.00 0.00 64 1013.3
20260904083027 21 186 0.0 6.4 0.00 0.00 0.00 65 1013.2
20260904081528 21 191 1.6 9.7 0.00 0.00 0.00 66 1013.4
20260904080015 21 163 0.0 1.6 0.00 0.00 0.00 69 1013.5
20260904074517 20 134 0.0 6.4 0.00 0.00 0.00 70 1013.4
20260904073012 21 171 0.0 8.0 0.00 0.00 0.00 69 1013.3
20260904071512 20 162 0.0 0.0 0.00 0.00 0.00 70 1013.5
20260904070011 21 222 0.0 0.0 0.00 0.00 0.00 68 1013.6
20260904064509 20 168 0.0 6.4 0.00 0.00 0.00 68 1013.7
20260904063011 20 193 0.0 1.6 0.00 0.00 0.00 69 1013.8
20260904061516 20 155 0.0 6.4 0.00 0.00 0.00 69 1013.9
20260904060002 19 143 0.0 4.8 0.00 0.00 0.00 72 1013.8
20260904054504 19 224 0.0 4.8 0.00 0.00 0.00 71 1013.9
20260904053105 19 179 0.0 0.0 0.00 0.00 0.00 75 1013.9
20260904051555 18 166 0.0 0.0 0.00 0.00 0.00 76 1013.9
20260904050056 18 158 0.0 0.0 0.00 0.00 0.00 77 1013.8
20260904044551 17 213 0.0 0.0 0.00 0.00 0.00 78 1013.9
20260904043057 17 213 0.0 0.0 0.00 0.00 0.00 80 1013.9
20260904041544 16 183 0.0 0.0 0.00 0.00 0.00 82 1013.8
20260904040056 15 183 0.0 0.0 0.00 0.00 0.00 83 1013.7
20260904034538 15 183 0.0 0.0 0.00 0.00 0.00 85 1013.8
20260904033041 14 211 0.0 0.0 0.00 0.00 0.00 86 1013.7